User: anonymous   Login
Location: Del Amo
(33.8464°N, 118.2104°W)
Time: 22:42:10
(UTC+00:00)
Language:

Tiros 1 despin weight - Orbit

View from above orbital plane
View from above orbital plane
View from above satellite
View from above satellite

Ground track
Ground track

The orbit data is extracted from the following two-line orbital elements,

1   115U 60002D   24255.32809268  .00009291  00000-0  94720-3 0  9997
2   115  48.1641  14.0127 0031796 249.1552 110.5958 14.90789688442944
Epoch (UTC): 11 September 2024 07:52:27
Eccentricity: 0.0031796
inclination: 48.1641°
perigee height: 573 km
apogee height: 617 km
right ascension of ascending node: 14.0127°
argument of perigee: 249.1552°
revolutions per day: 14.90789688
mean anomaly at epoch: 110.5958°
orbit number at epoch: 44294

The dashed part of the orbit path shows where the satellite is in the earth's shadow,  

DLR